{"data":{"norad_id":64251,"epoch":"2026-09-20T02:14:26.859552Z","epoch_age_seconds":172755,"freshness":"FRESH","line1":"1 64251U 25119U   26263.09336643  .00007976  00000+0  29899-3 0  9997","line2":"2 64251  43.0000 288.9208 0000892 252.0180 108.0574 15.27585159 73903","mean_motion":15.27585159,"eccentricity":8.92e-5,"inclination_deg":43,"raan_deg":288.9208,"arg_perigee_deg":252.018,"mean_anomaly_deg":108.0574,"bstar":0.00029899,"rev_number":7390,"period_min":94.266430353556,"perigee_km":482.42163175937,"apogee_km":483.64566460301,"semimajor_km":6861.1706481812,"source":"CELESTRAK","updated_at":"2026-09-21T09:00:35.280092Z"}}